Location: Unspecified
(40.9447°N, 78.9903°W)
Time: 11:05:52
(UTC-04:00)

Resurs 1-4 Rocket - Pass Details

Date: 28 July 2021
Orbit: 799 x 815 km, 98.6° (Epoch: 23 September)

Event Time Altitude Azimuth Distance (km) Brightness Sun altitude
Rises 03:21:11 0° 7° (N) 3,341 6.4 -24.1°
Reaches altitude 10° 03:23:35 10° 3° (N) 2,404 5.4 -23.9°
Maximum altitude 03:28:41 49° 289° (WNW) 1,030 2.5 -23.4°
Enters shadow 03:29:29 46° 261° (W) 1,083 2.4 -23.3°
